| time (UTC) | temp F | wind direction | speed MPH | gust MPH | rain 1hr in | rain 24hr in | rain mn in | humidity % | barometer mb |
| 20260903045525 | 60 | 238 | 7.0 | 18.0 | 0.00 | 0.03 | 0.03 | 84 | 1005.8 |
| 20260903045025 | 60 | 166 | 10.0 | 18.0 | 0.00 | 0.03 | 0.03 | 84 | 1005.8 |
| 20260903044548 | 60 | 165 | 8.0 | 15.0 | 0.00 | 0.03 | 0.03 | 85 | 1005.7 |
| 20260903044024 | 60 | 150 | 8.0 | 13.0 | 0.00 | 0.03 | 0.03 | 85 | 1005.5 |
| 20260903043525 | 60 | 144 | 8.0 | 18.0 | 0.00 | 0.03 | 0.03 | 84 | 1005.3 |
| 20260903043047 | 60 | 105 | 9.0 | 18.0 | 0.00 | 0.03 | 0.03 | 84 | 1005.2 |
| 20260903042526 | 60 | 86 | 6.0 | 17.0 | 0.00 | 0.03 | 0.03 | 84 | 1005.0 |
| 20260903042024 | 60 | 143 | 7.0 | 17.0 | 0.00 | 0.03 | 0.03 | 84 | 1004.9 |
| 20260903041551 | 60 | 208 | 6.0 | 13.0 | 0.00 | 0.03 | 0.03 | 84 | 1004.8 |
| 20260903041027 | 60 | 136 | 7.0 | 16.0 | 0.00 | 0.03 | 0.03 | 84 | 1004.7 |
| 20260903040524 | 60 | 130 | 9.0 | 16.0 | 0.00 | 0.03 | 0.03 | 84 | 1004.7 |
| 20260903040050 | 60 | 142 | 5.0 | 15.0 | 0.00 | 0.03 | 0.03 | 84 | 1004.6 |
| 20260903035525 | 60 | 164 | 6.0 | 15.0 | 0.00 | 0.03 | 0.03 | 84 | 1004.5 |
| 20260903035024 | 61 | 183 | 6.0 | 15.0 | 0.00 | 0.03 | 0.03 | 84 | 1004.5 |
| 20260903034545 | 61 | 168 | 6.0 | 17.0 | 0.00 | 0.03 | 0.03 | 84 | 1004.4 |
| 20260903034025 | 61 | 168 | 6.0 | 17.0 | 0.00 | 0.03 | 0.03 | 84 | 1004.3 |
| 20260903033524 | 61 | 125 | 7.0 | 17.0 | 0.00 | 0.03 | 0.03 | 83 | 1004.1 |
| 20260903033043 | 61 | 141 | 8.0 | 17.0 | 0.00 | 0.03 | 0.03 | 83 | 1003.9 |
| 20260903032525 | 61 | 169 | 6.0 | 15.0 | 0.00 | 0.03 | 0.03 | 83 | 1003.9 |
| 20260903032028 | 62 | 215 | 7.0 | 19.0 | 0.00 | 0.03 | 0.03 | 82 | 1003.8 |
| 20260903031554 | 62 | 106 | 8.0 | 20.0 | 0.00 | 0.03 | 0.03 | 82 | 1003.7 |
| 20260903031024 | 62 | 136 | 6.0 | 24.0 | 0.00 | 0.03 | 0.03 | 81 | 1003.6 |
| 20260903030527 | 62 | 169 | 11.0 | 25.0 | 0.00 | 0.03 | 0.03 | 80 | 1003.5 |
| 20260903030050 | 62 | 130 | 13.0 | 25.0 | 0.00 | 0.03 | 0.03 | 80 | 1003.2 |
| 20260903025525 | 63 | 152 | 13.0 | 25.0 | 0.00 | 0.03 | 0.03 | 80 | 1003.0 |
| 20260903025025 | 63 | 140 | 12.0 | 27.0 | 0.00 | 0.03 | 0.03 | 80 | 1002.8 |
| 20260903024549 | 63 | 134 | 14.0 | 27.0 | 0.00 | 0.03 | 0.03 | 79 | 1002.7 |
| 20260903024028 | 63 | 141 | 11.0 | 23.0 | 0.00 | 0.03 | 0.03 | 79 | 1002.6 |
| 20260903023525 | 63 | 122 | 10.0 | 15.0 | 0.00 | 0.03 | 0.03 | 80 | 1002.6 |
| 20260903023058 | 62 | 117 | 8.0 | 15.0 | 0.00 | 0.03 | 0.03 | 80 | 1002.5 |
| 20260903022526 | 62 | 131 | 9.0 | 18.0 | 0.00 | 0.03 | 0.03 | 79 | 1002.6 |
| 20260903022026 | 62 | 125 | 7.0 | 22.0 | 0.00 | 0.03 | 0.03 | 81 | 1002.5 |
| 20260903021551 | 62 | 144 | 12.0 | 23.0 | 0.00 | 0.03 | 0.03 | 80 | 1002.5 |
| 20260903021029 | 62 | 136 | 9.0 | 23.0 | 0.00 | 0.03 | 0.03 | 80 | 1002.3 |
| 20260903020524 | 62 | 145 | 14.0 | 23.0 | 0.00 | 0.03 | 0.03 | 80 | 1002.1 |
| 20260903020047 | 61 | 142 | 13.0 | 22.0 | 0.00 | 0.03 | 0.03 | 81 | 1002.0 |
| 20260903015526 | 61 | 130 | 8.0 | 15.0 | 0.00 | 0.03 | 0.03 | 85 | 1002.1 |
| 20260903015024 | 60 | 103 | 5.0 | 12.0 | 0.00 | 0.03 | 0.03 | 86 | 1001.9 |
| 20260903014548 | 60 | 75 | 5.0 | 9.0 | 0.01 | 0.03 | 0.03 | 86 | 1001.9 |
| 20260903014025 | 60 | 102 | 6.0 | 10.0 | 0.01 | 0.03 | 0.03 | 87 | 1001.9 |
| 20260903013524 | 60 | 109 | 5.0 | 11.0 | 0.01 | 0.03 | 0.03 | 87 | 1001.9 |
| 20260903013057 | 60 | 73 | 7.0 | 15.0 | 0.01 | 0.03 | 0.03 | 87 | 1002.1 |
| 20260903012525 | 60 | 132 | 7.0 | 17.0 | 0.02 | 0.03 | 0.03 | 87 | 1002.0 |
| 20260903012027 | 60 | 132 | 10.0 | 17.0 | 0.02 | 0.03 | 0.03 | 87 | 1001.9 |
| 20260903011549 | 60 | 101 | 9.0 | 17.0 | 0.02 | 0.03 | 0.03 | 88 | 1002.0 |
| 20260903011027 | 59 | 136 | 10.0 | 20.0 | 0.02 | 0.03 | 0.03 | 88 | 1002.2 |
| 20260903010525 | 59 | 170 | 11.0 | 20.0 | 0.02 | 0.03 | 0.03 | 88 | 1002.4 |
| 20260903010047 | 59 | 151 | 14.0 | 21.0 | 0.02 | 0.03 | 0.03 | 89 | 1002.4 |
| 20260903005525 | 59 | 148 | 12.0 | 22.0 | 0.02 | 0.03 | 0.03 | 89 | 1002.5 |
| 20260903005025 | 59 | 142 | 11.0 | 25.0 | 0.02 | 0.03 | 0.03 | 89 | 1002.5 |
| 20260903004544 | 60 | 127 | 13.0 | 25.0 | 0.01 | 0.02 | 0.02 | 88 | 1002.6 |
| 20260903004024 | 60 | 127 | 15.0 | 25.0 | 0.01 | 0.02 | 0.02 | 87 | 1002.6 |
| 20260903003522 | 60 | 139 | 13.0 | 24.0 | 0.01 | 0.02 | 0.02 | 87 | 1002.6 |
| 20260903003052 | 60 | 150 | 11.0 | 24.0 | 0.01 | 0.01 | 0.01 | 86 | 1002.6 |
| 20260903002528 | 61 | 119 | 12.0 | 24.0 | 0.01 | 0.01 | 0.01 | 85 | 1002.6 |
| 20260903002026 | 61 | 136 | 12.0 | 24.0 | 0.01 | 0.01 | 0.01 | 85 | 1002.7 |
| 20260903001549 | 61 | 124 | 13.0 | 19.0 | 0.01 | 0.01 | 0.01 | 84 | 1002.7 |
| 20260903001026 | 61 | 189 | 10.0 | 16.0 | 0.01 | 0.01 | 0.01 | 84 | 1002.7 |
| 20260903000531 | 62 | 117 | 9.0 | 16.0 | 0.01 | 0.01 | 0.01 | 84 | 1002.8 |
| 20260903000044 | 62 | 113 | 9.0 | 16.0 | 0.01 | 0.01 | 0.01 | 83 | 1002.8 |
| 20260902235526 | 62 | 145 | 9.0 | 16.0 | 0.01 | 0.01 | 0.01 | 82 | 1002.8 |
| 20260902235026 | 62 | 139 | 10.0 | 16.0 | 0.01 | 0.01 | 0.01 | 80 | 1002.8 |
| 20260902234600 | 63 | 142 | 9.0 | 16.0 | 0.01 | 0.01 | 0.01 | 80 | 1002.8 |
| 20260902234025 | 63 | 151 | 8.0 | 16.0 | 0.01 | 0.01 | 0.01 | 79 | 1002.8 |
| 20260902233527 | 63 | 169 | 9.0 | 16.0 | 0.01 | 0.01 | 0.01 | 78 | 1002.8 |
| 20260902233048 | 63 | 139 | 6.0 | 14.0 | 0.00 | 0.00 | 0.00 | 78 | 1002.9 |
| 20260902232525 | 63 | 137 | 6.0 | 14.0 | 0.00 | 0.00 | 0.00 | 77 | 1002.9 |
| 20260902232025 | 64 | 108 | 8.0 | 16.0 | 0.00 | 0.00 | 0.00 | 77 | 1002.9 |
| 20260902231558 | 64 | 163 | 6.0 | 16.0 | 0.00 | 0.00 | 0.00 | 76 | 1002.9 |
| 20260902231028 | 65 | 140 | 8.0 | 16.0 | 0.00 | 0.00 | 0.00 | 74 | 1002.9 |
| 20260902230526 | 65 | 110 | 7.0 | 13.0 | 0.00 | 0.00 | 0.00 | 73 | 1002.8 |
| 20260902230047 | 65 | 132 | 6.0 | 12.0 | 0.00 | 0.00 | 0.00 | 72 | 1002.7 |
| 20260902225529 | 66 | 183 | 6.0 | 12.0 | 0.00 | 0.00 | 0.00 | 71 | 1002.7 |
| 20260902225026 | 66 | 137 | 8.0 | 16.0 | 0.00 | 0.00 | 0.00 | 69 | 1002.6 |
| 20260902224546 | 66 | 122 | 8.0 | 17.0 | 0.00 | 0.00 | 0.00 | 69 | 1002.6 |
| 20260902224026 | 66 | 149 | 9.0 | 19.0 | 0.00 | 0.00 | 0.00 | 69 | 1002.6 |
| 20260902223524 | 66 | 125 | 7.0 | 19.0 | 0.00 | 0.00 | 0.00 | 67 | 1002.6 |
| 20260902223051 | 66 | 172 | 9.0 | 19.0 | 0.00 | 0.00 | 0.00 | 67 | 1002.6 |
| 20260902222522 | 66 | 141 | 7.0 | 14.0 | 0.00 | 0.00 | 0.00 | 68 | 1002.5 |
| 20260902222026 | 67 | 134 | 7.0 | 20.0 | 0.00 | 0.00 | 0.00 | 68 | 1002.6 |
| 20260902221555 | 67 | 141 | 8.0 | 20.0 | 0.00 | 0.00 | 0.00 | 67 | 1002.7 |
| 20260902221025 | 67 | 142 | 13.0 | 20.0 | 0.00 | 0.00 | 0.00 | 66 | 1002.8 |
| 20260902220528 | 67 | 136 | 9.0 | 14.0 | 0.00 | 0.00 | 0.00 | 66 | 1002.8 |
| 20260902220047 | 67 | 155 | 5.0 | 11.0 | 0.00 | 0.00 | 0.00 | 67 | 1002.7 |
| 20260902215526 | 67 | 131 | 7.0 | 11.0 | 0.00 | 0.00 | 0.00 | 67 | 1002.7 |
| 20260902215025 | 68 | 143 | 4.0 | 16.0 | 0.00 | 0.00 | 0.00 | 68 | 1002.8 |
| 20260902214547 | 68 | 139 | 8.0 | 16.0 | 0.00 | 0.00 | 0.00 | 66 | 1002.8 |
| 20260902214025 | 67 | 128 | 9.0 | 15.0 | 0.00 | 0.00 | 0.00 | 66 | 1002.8 |
| 20260902213527 | 67 | 131 | 8.0 | 15.0 | 0.00 | 0.00 | 0.00 | 68 | 1002.7 |
| 20260902213055 | 67 | 131 | 9.0 | 15.0 | 0.00 | 0.00 | 0.00 | 67 | 1002.8 |
| 20260902212525 | 67 | 127 | 8.0 | 15.0 | 0.00 | 0.00 | 0.00 | 67 | 1002.6 |
| 20260902212026 | 67 | 143 | 8.0 | 14.0 | 0.00 | 0.00 | 0.00 | 68 | 1002.8 |
| 20260902211550 | 67 | 141 | 9.0 | 14.0 | 0.00 | 0.00 | 0.00 | 67 | 1002.8 |
| 20260902211027 | 67 | 139 | 9.0 | 16.0 | 0.00 | 0.00 | 0.00 | 68 | 1002.9 |
| 20260902210525 | 67 | 153 | 9.0 | 17.0 | 0.00 | 0.00 | 0.00 | 68 | 1002.9 |
| 20260902210047 | 68 | 160 | 10.0 | 17.0 | 0.00 | 0.00 | 0.00 | 67 | 1002.8 |
| 20260902205525 | 67 | 135 | 11.0 | 19.0 | 0.00 | 0.00 | 0.00 | 66 | 1002.9 |
| 20260902205025 | 67 | 120 | 13.0 | 21.0 | 0.00 | 0.00 | 0.00 | 65 | 1002.9 |
| 20260902204547 | 67 | 148 | 14.0 | 21.0 | 0.00 | 0.00 | 0.00 | 67 | 1002.9 |
| 20260902204024 | 67 | 135 | 14.0 | 21.0 | 0.00 | 0.00 | 0.00 | 65 | 1003.1 |
| 20260902203525 | 67 | 124 | 13.0 | 21.0 | 0.00 | 0.00 | 0.00 | 66 | 1003.1 |
| 20260902203053 | 67 | 128 | 14.0 | 23.0 | 0.00 | 0.00 | 0.00 | 67 | 1003.0 |
| 20260902202526 | 68 | 137 | 11.0 | 23.0 | 0.00 | 0.00 | 0.00 | 68 | 1003.0 |
| 20260902202026 | 68 | 123 | 11.0 | 23.0 | 0.00 | 0.00 | 0.00 | 66 | 1003.1 |
| 20260902201547 | 68 | 151 | 13.0 | 23.0 | 0.00 | 0.00 | 0.00 | 66 | 1003.1 |
| 20260902201025 | 68 | 184 | 12.0 | 21.0 | 0.00 | 0.00 | 0.00 | 66 | 1003.2 |
| 20260902200526 | 68 | 152 | 12.0 | 21.0 | 0.00 | 0.00 | 0.00 | 67 | 1003.2 |
| 20260902200046 | 68 | 130 | 15.0 | 21.0 | 0.00 | 0.00 | 0.00 | 65 | 1003.3 |
| 20260902195526 | 68 | 135 | 12.0 | 21.0 | 0.00 | 0.00 | 0.00 | 66 | 1003.3 |
| 20260902195024 | 68 | 135 | 14.0 | 21.0 | 0.00 | 0.00 | 0.00 | 66 | 1003.3 |
| 20260902194552 | 68 | 139 | 12.0 | 20.0 | 0.00 | 0.00 | 0.00 | 66 | 1003.4 |
| 20260902194025 | 68 | 170 | 11.0 | 21.0 | 0.00 | 0.00 | 0.00 | 68 | 1003.5 |
| 20260902193526 | 68 | 150 | 9.0 | 21.0 | 0.00 | 0.00 | 0.00 | 67 | 1003.6 |
| 20260902193057 | 68 | 160 | 7.0 | 16.0 | 0.00 | 0.00 | 0.00 | 68 | 1003.7 |
| 20260902192528 | 68 | 133 | 8.0 | 15.0 | 0.00 | 0.00 | 0.00 | 68 | 1003.8 |
| 20260902192031 | 68 | 150 | 4.0 | 10.0 | 0.00 | 0.00 | 0.00 | 69 | 1003.8 |
| 20260902191556 | 68 | 134 | 5.0 | 11.0 | 0.00 | 0.00 | 0.00 | 69 | 1003.9 |
| 20260902191029 | 67 | 201 | 7.0 | 12.0 | 0.00 | 0.00 | 0.00 | 69 | 1003.9 |
| 20260902190527 | 67 | 236 | 6.0 | 13.0 | 0.00 | 0.00 | 0.00 | 69 | 1004.0 |
| 20260902190050 | 67 | 171 | 5.0 | 13.0 | 0.00 | 0.00 | 0.00 | 69 | 1004.0 |
| 20260902185527 | 67 | 148 | 7.0 | 15.0 | 0.00 | 0.00 | 0.00 | 68 | 1004.2 |
| 20260902185025 | 67 | 136 | 5.0 | 15.0 | 0.00 | 0.00 | 0.00 | 69 | 1004.1 |
| 20260902184543 | 67 | 139 | 9.0 | 15.0 | 0.00 | 0.00 | 0.00 | 68 | 1004.1 |
| 20260902184024 | 67 | 143 | 9.0 | 20.0 | 0.00 | 0.00 | 0.00 | 67 | 1004.2 |
| 20260902183527 | 67 | 137 | 10.0 | 20.0 | 0.00 | 0.00 | 0.00 | 68 | 1004.2 |
| 20260902183051 | 67 | 127 | 13.0 | 19.0 | 0.00 | 0.00 | 0.00 | 68 | 1004.3 |
| 20260902182525 | 67 | 138 | 11.0 | 19.0 | 0.00 | 0.00 | 0.00 | 68 | 1004.2 |
| 20260902182028 | 67 | 146 | 10.0 | 19.0 | 0.00 | 0.00 | 0.00 | 69 | 1004.2 |
| 20260902181550 | 67 | 144 | 11.0 | 26.0 | 0.00 | 0.00 | 0.00 | 71 | 1004.2 |
| 20260902181029 | 67 | 156 | 12.0 | 26.0 | 0.00 | 0.00 | 0.00 | 70 | 1004.3 |
| 20260902180525 | 66 | 139 | 12.0 | 21.0 | 0.00 | 0.00 | 0.00 | 70 | 1004.2 |
| 20260902180050 | 66 | 117 | 13.0 | 22.0 | 0.00 | 0.00 | 0.00 | 70 | 1004.3 |
| 20260902175525 | 66 | 171 | 13.0 | 25.0 | 0.00 | 0.00 | 0.00 | 71 | 1004.4 |
| 20260902175027 | 66 | 127 | 15.0 | 25.0 | 0.00 | 0.00 | 0.00 | 70 | 1004.5 |
| 20260902174554 | 66 | 146 | 14.0 | 23.0 | 0.00 | 0.00 | 0.00 | 70 | 1004.5 |
| 20260902174028 | 66 | 150 | 12.0 | 20.0 | 0.00 | 0.00 | 0.00 | 71 | 1004.6 |
| 20260902173524 | 66 | 128 | 8.0 | 20.0 | 0.00 | 0.00 | 0.00 | 72 | 1004.7 |
| 20260902173054 | 66 | 131 | 11.0 | 20.0 | 0.00 | 0.00 | 0.00 | 73 | 1004.7 |
| 20260902172526 | 65 | 129 | 8.0 | 23.0 | 0.00 | 0.00 | 0.00 | 74 | 1004.7 |
| 20260902172023 | 65 | 114 | 14.0 | 23.0 | 0.00 | 0.00 | 0.00 | 73 | 1004.9 |
| 20260902171555 | 65 | 136 | 10.0 | 18.0 | 0.00 | 0.00 | 0.00 | 74 | 1004.9 |
| 20260902171026 | 65 | 159 | 11.0 | 17.0 | 0.00 | 0.00 | 0.00 | 74 | 1004.9 |
| 20260902170526 | 65 | 140 | 12.0 | 17.0 | 0.00 | 0.00 | 0.00 | 74 | 1004.9 |
| 20260902170047 | 64 | 137 | 11.0 | 21.0 | 0.00 | 0.00 | 0.00 | 75 | 1005.0 |
| 20260902165531 | 64 | 152 | 14.0 | 22.0 | 0.00 | 0.00 | 0.00 | 75 | 1004.9 |
| 20260902165028 | 64 | 115 | 14.0 | 22.0 | 0.00 | 0.00 | 0.00 | 76 | 1004.9 |
| 20260902164553 | 64 | 120 | 13.0 | 24.0 | 0.00 | 0.00 | 0.00 | 76 | 1004.8 |
| 20260902164026 | 64 | 115 | 13.0 | 24.0 | 0.00 | 0.00 | 0.00 | 77 | 1004.9 |
| 20260902163526 | 63 | 136 | 13.0 | 25.0 | 0.00 | 0.00 | 0.00 | 78 | 1004.9 |
| 20260902163050 | 63 | 143 | 16.0 | 25.0 | 0.00 | 0.00 | 0.00 | 77 | 1004.9 |
| 20260902162523 | 63 | 123 | 15.0 | 24.0 | 0.00 | 0.00 | 0.00 | 78 | 1004.9 |
| 20260902162025 | 63 | 144 | 14.0 | 24.0 | 0.00 | 0.00 | 0.00 | 79 | 1004.9 |
| 20260902161549 | 63 | 130 | 16.0 | 25.0 | 0.00 | 0.00 | 0.00 | 79 | 1005.0 |
| 20260902161026 | 63 | 115 | 18.0 | 25.0 | 0.00 | 0.00 | 0.00 | 78 | 1004.8 |
| 20260902160530 | 64 | 146 | 14.0 | 22.0 | 0.00 | 0.00 | 0.00 | 78 | 1005.0 |
| 20260902160051 | 64 | 124 | 15.0 | 22.0 | 0.00 | 0.00 | 0.00 | 77 | 1004.9 |
| 20260902155525 | 64 | 96 | 13.0 | 21.0 | 0.00 | 0.00 | 0.00 | 77 | 1005.0 |
| 20260902155025 | 64 | 80 | 12.0 | 21.0 | 0.00 | 0.00 | 0.00 | 76 | 1005.0 |
| 20260902154604 | 64 | 141 | 12.0 | 21.0 | 0.00 | 0.00 | 0.00 | 76 | 1005.0 |
| 20260902154025 | 64 | 135 | 14.0 | 22.0 | 0.00 | 0.00 | 0.00 | 75 | 1005.1 |
| 20260902153524 | 64 | 135 | 10.0 | 22.0 | 0.00 | 0.00 | 0.00 | 76 | 1005.1 |
| 20260902153049 | 64 | 144 | 11.0 | 20.0 | 0.00 | 0.00 | 0.00 | 76 | 1005.2 |
| 20260902152526 | 64 | 124 | 10.0 | 21.0 | 0.00 | 0.00 | 0.00 | 76 | 1005.2 |
| 20260902152024 | 64 | 135 | 14.0 | 25.0 | 0.00 | 0.00 | 0.00 | 76 | 1005.1 |
| 20260902151547 | 64 | 119 | 13.0 | 25.0 | 0.00 | 0.00 | 0.00 | 77 | 1005.1 |
| 20260902151027 | 64 | 126 | 16.0 | 25.0 | 0.00 | 0.00 | 0.00 | 76 | 1005.1 |
| 20260902150531 | 64 | 122 | 17.0 | 24.0 | 0.00 | 0.00 | 0.00 | 76 | 1005.1 |
| 20260902150047 | 64 | 103 | 16.0 | 24.0 | 0.00 | 0.00 | 0.00 | 77 | 1005.1 |
| 20260902145528 | 64 | 160 | 15.0 | 25.0 | 0.00 | 0.00 | 0.00 | 77 | 1005.0 |
| 20260902145029 | 64 | 148 | 15.0 | 25.0 | 0.00 | 0.00 | 0.00 | 77 | 1005.2 |
| 20260902144545 | 64 | 124 | 11.0 | 23.0 | 0.00 | 0.00 | 0.00 | 77 | 1005.3 |
| 20260902144026 | 64 | 150 | 16.0 | 23.0 | 0.00 | 0.00 | 0.00 | 76 | 1005.1 |
| 20260902143525 | 64 | 105 | 15.0 | 23.0 | 0.00 | 0.00 | 0.00 | 77 | 1005.1 |
| 20260902143052 | 64 | 162 | 16.0 | 23.0 | 0.00 | 0.00 | 0.00 | 77 | 1005.0 |
| 20260902142528 | 63 | 126 | 17.0 | 24.0 | 0.00 | 0.00 | 0.00 | 77 | 1004.9 |
| 20260902142027 | 63 | 102 | 13.0 | 24.0 | 0.00 | 0.00 | 0.00 | 77 | 1005.1 |
| 20260902141554 | 63 | 143 | 11.0 | 21.0 | 0.00 | 0.00 | 0.00 | 78 | 1005.1 |
| 20260902141027 | 63 | 166 | 10.0 | 19.0 | 0.00 | 0.00 | 0.00 | 78 | 1005.2 |
| 20260902140527 | 63 | 94 | 9.0 | 15.0 | 0.00 | 0.00 | 0.00 | 79 | 1005.3 |
| 20260902140050 | 62 | 148 | 9.0 | 21.0 | 0.00 | 0.00 | 0.00 | 80 | 1005.4 |
| 20260902135528 | 62 | 127 | 11.0 | 21.0 | 0.00 | 0.00 | 0.00 | 80 | 1005.4 |
| 20260902135026 | 62 | 141 | 10.0 | 17.0 | 0.00 | 0.00 | 0.00 | 81 | 1005.6 |
| 20260902134557 | 62 | 131 | 7.0 | 19.0 | 0.00 | 0.00 | 0.00 | 81 | 1005.7 |
| 20260902134023 | 62 | 128 | 9.0 | 20.0 | 0.00 | 0.00 | 0.00 | 82 | 1005.5 |
| 20260902133526 | 62 | 151 | 11.0 | 20.0 | 0.00 | 0.00 | 0.00 | 82 | 1005.4 |
| 20260902133050 | 62 | 123 | 14.0 | 20.0 | 0.00 | 0.00 | 0.00 | 82 | 1005.2 |
| 20260902132526 | 62 | 141 | 13.0 | 20.0 | 0.00 | 0.00 | 0.00 | 82 | 1005.4 |
| 20260902132024 | 62 | 121 | 8.0 | 19.0 | 0.00 | 0.00 | 0.00 | 82 | 1005.5 |
| 20260902131550 | 62 | 130 | 8.0 | 20.0 | 0.00 | 0.00 | 0.00 | 82 | 1005.6 |
| 20260902131028 | 62 | 150 | 12.0 | 20.0 | 0.00 | 0.00 | 0.00 | 82 | 1005.6 |
| 20260902130526 | 62 | 209 | 10.0 | 22.0 | 0.00 | 0.00 | 0.00 | 82 | 1005.6 |
| 20260902130048 | 62 | 183 | 8.0 | 22.0 | 0.00 | 0.00 | 0.00 | 81 | 1005.6 |
| 20260902125527 | 63 | 133 | 7.0 | 21.0 | 0.00 | 0.00 | 0.00 | 82 | 1005.7 |
| 20260902125030 | 63 | 120 | 8.0 | 21.0 | 0.00 | 0.00 | 0.00 | 82 | 1005.8 |
| 20260902124553 | 63 | 141 | 7.0 | 20.0 | 0.00 | 0.00 | 0.00 | 82 | 1005.6 |
| 20260902124028 | 63 | 131 | 10.0 | 20.0 | 0.00 | 0.00 | 0.00 | 81 | 1005.6 |
| 20260902123527 | 63 | 140 | 11.0 | 19.0 | 0.00 | 0.00 | 0.00 | 80 | 1005.6 |
| 20260902123048 | 63 | 171 | 10.0 | 19.0 | 0.00 | 0.00 | 0.00 | 80 | 1005.7 |
| 20260902122526 | 63 | 143 | 7.0 | 16.0 | 0.00 | 0.00 | 0.00 | 80 | 1005.7 |
| 20260902122025 | 63 | 145 | 9.0 | 16.0 | 0.00 | 0.00 | 0.00 | 81 | 1005.8 |
| 20260902121550 | 63 | 141 | 9.0 | 15.0 | 0.00 | 0.00 | 0.00 | 81 | 1005.8 |
| 20260902121025 | 63 | 124 | 9.0 | 16.0 | 0.00 | 0.00 | 0.00 | 80 | 1005.8 |
| 20260902120528 | 63 | 120 | 9.0 | 16.0 | 0.00 | 0.00 | 0.00 | 80 | 1005.9 |
| 20260902120044 | 63 | 168 | 8.0 | 19.0 | 0.00 | 0.00 | 0.00 | 80 | 1006.0 |
| 20260902115525 | 63 | 131 | 11.0 | 19.0 | 0.00 | 0.00 | 0.00 | 79 | 1006.0 |
| 20260902115027 | 63 | 130 | 10.0 | 17.0 | 0.00 | 0.00 | 0.00 | 80 | 1006.1 |
| 20260902114616 | 63 | 125 | 9.0 | 17.0 | 0.00 | 0.00 | 0.00 | 80 | 1006.2 |
| 20260902114025 | 63 | 140 | 7.0 | 18.0 | 0.00 | 0.00 | 0.00 | 80 | 1006.2 |
| 20260902113526 | 63 | 147 | 10.0 | 18.0 | 0.00 | 0.00 | 0.00 | 80 | 1006.5 |
| 20260902113050 | 63 | 141 | 8.0 | 17.0 | 0.00 | 0.00 | 0.00 | 79 | 1006.4 |
| 20260902112525 | 63 | 153 | 9.0 | 17.0 | 0.00 | 0.00 | 0.00 | 79 | 1006.6 |
| 20260902112029 | 63 | 122 | 7.0 | 17.0 | 0.00 | 0.00 | 0.00 | 80 | 1006.7 |
| 20260902111548 | 63 | 129 | 10.0 | 15.0 | 0.00 | 0.00 | 0.00 | 79 | 1006.7 |
| 20260902111025 | 63 | 129 | 8.0 | 14.0 | 0.00 | 0.00 | 0.00 | 79 | 1006.7 |
| 20260902110527 | 63 | 133 | 7.0 | 16.0 | 0.00 | 0.00 | 0.00 | 79 | 1006.8 |
| 20260902110050 | 63 | 146 | 7.0 | 21.0 | 0.00 | 0.00 | 0.00 | 78 | 1006.8 |
| 20260902105525 | 63 | 137 | 12.0 | 21.0 | 0.00 | 0.00 | 0.00 | 78 | 1006.8 |
| 20260902105026 | 63 | 139 | 8.0 | 18.0 | 0.00 | 0.00 | 0.00 | 78 | 1006.9 |
| 20260902104549 | 63 | 143 | 9.0 | 18.0 | 0.00 | 0.00 | 0.00 | 78 | 1006.8 |
| 20260902104024 | 63 | 321 | 7.0 | 18.0 | 0.00 | 0.00 | 0.00 | 79 | 1006.9 |
| 20260902103524 | 63 | 138 | 10.0 | 18.0 | 0.00 | 0.00 | 0.00 | 79 | 1006.8 |
| 20260902103101 | 63 | 150 | 8.0 | 17.0 | 0.00 | 0.00 | 0.00 | 79 | 1006.9 |
| 20260902102526 | 63 | 115 | 10.0 | 17.0 | 0.00 | 0.00 | 0.00 | 80 | 1006.9 |
| 20260902102027 | 63 | 163 | 7.0 | 14.0 | 0.00 | 0.00 | 0.00 | 80 | 1006.9 |
| 20260902101546 | 63 | 130 | 7.0 | 15.0 | 0.00 | 0.00 | 0.00 | 80 | 1007.0 |
| 20260902101025 | 63 | 132 | 6.0 | 15.0 | 0.00 | 0.00 | 0.00 | 80 | 1007.0 |
| 20260902100527 | 63 | 201 | 6.0 | 15.0 | 0.00 | 0.00 | 0.00 | 80 | 1007.0 |
| 20260902100105 | 62 | 96 | 7.0 | 15.0 | 0.00 | 0.00 | 0.00 | 80 | 1007.0 |
| 20260902095525 | 62 | 155 | 4.0 | 18.0 | 0.00 | 0.00 | 0.00 | 81 | 1007.1 |
| 20260902095026 | 62 | 118 | 6.0 | 18.0 | 0.00 | 0.00 | 0.00 | 81 | 1007.0 |
| 20260902094542 | 62 | 143 | 9.0 | 18.0 | 0.00 | 0.00 | 0.00 | 81 | 1007.0 |
| 20260902094026 | 62 | 136 | 9.0 | 17.0 | 0.00 | 0.00 | 0.00 | 82 | 1007.2 |
| 20260902093523 | 62 | 172 | 6.0 | 17.0 | 0.00 | 0.00 | 0.00 | 82 | 1007.2 |
| 20260902093107 | 62 | 151 | 6.0 | 16.0 | 0.00 | 0.00 | 0.00 | 83 | 1007.2 |
| 20260902092528 | 62 | 139 | 6.0 | 16.0 | 0.00 | 0.00 | 0.00 | 83 | 1007.3 |
| 20260902092029 | 62 | 136 | 8.0 | 16.0 | 0.00 | 0.00 | 0.00 | 83 | 1007.5 |
| 20260902091544 | 62 | 251 | 5.0 | 15.0 | 0.00 | 0.00 | 0.00 | 83 | 1007.6 |
| 20260902091025 | 62 | 139 | 5.0 | 15.0 | 0.00 | 0.00 | 0.00 | 83 | 1007.6 |
| 20260902090526 | 62 | 131 | 5.0 | 16.0 | 0.00 | 0.00 | 0.00 | 84 | 1007.7 |
| 20260902090048 | 62 | 167 | 7.0 | 16.0 | 0.00 | 0.00 | 0.00 | 84 | 1007.8 |
| 20260902085525 | 62 | 206 | 8.0 | 15.0 | 0.00 | 0.00 | 0.00 | 84 | 1007.8 |
| 20260902085024 | 62 | 127 | 4.0 | 11.0 | 0.00 | 0.00 | 0.00 | 84 | 1007.9 |
| 20260902084548 | 62 | 124 | 3.0 | 11.0 | 0.00 | 0.00 | 0.00 | 84 | 1007.9 |
| 20260902084028 | 62 | 240 | 5.0 | 11.0 | 0.00 | 0.00 | 0.00 | 84 | 1007.9 |
| 20260902083525 | 62 | 114 | 5.0 | 11.0 | 0.00 | 0.00 | 0.00 | 84 | 1007.9 |
| 20260902083045 | 62 | 148 | 5.0 | 11.0 | 0.00 | 0.00 | 0.00 | 84 | 1008.0 |
| 20260902082528 | 62 | 141 | 4.0 | 13.0 | 0.00 | 0.00 | 0.00 | 85 | 1007.9 |
| 20260902082032 | 62 | 244 | 6.0 | 13.0 | 0.00 | 0.00 | 0.00 | 85 | 1007.9 |
| 20260902081552 | 62 | 253 | 5.0 | 12.0 | 0.00 | 0.00 | 0.00 | 86 | 1007.9 |
| 20260902081027 | 62 | 153 | 4.0 | 9.0 | 0.00 | 0.00 | 0.00 | 86 | 1007.9 |
| 20260902080527 | 62 | 137 | 1.0 | 5.0 | 0.00 | 0.00 | 0.00 | 87 | 1008.1 |
| 20260902080049 | 62 | 185 | 2.0 | 5.0 | 0.00 | 0.00 | 0.00 | 86 | 1008.0 |
| 20260902075522 | 62 | 257 | 2.0 | 5.0 | 0.00 | 0.00 | 0.00 | 86 | 1007.8 |
| 20260902075028 | 62 | 167 | 2.0 | 5.0 | 0.00 | 0.00 | 0.00 | 86 | 1007.9 |
| 20260902074546 | 62 | 307 | 1.0 | 5.0 | 0.00 | 0.00 | 0.00 | 86 | 1007.7 |
| 20260902074025 | 62 | 179 | 2.0 | 5.0 | 0.00 | 0.00 | 0.00 | 86 | 1007.8 |
| 20260902073525 | 62 | 138 | 2.0 | 10.0 | 0.00 | 0.00 | 0.00 | 86 | 1007.7 |
| 20260902073048 | 62 | 219 | 2.0 | 10.0 | 0.00 | 0.00 | 0.00 | 86 | 1007.8 |
| 20260902072527 | 62 | 159 | 2.0 | 6.0 | 0.00 | 0.00 | 0.00 | 86 | 1007.9 |
| 20260902072025 | 62 | 216 | 2.0 | 5.0 | 0.00 | 0.00 | 0.00 | 86 | 1007.8 |
| 20260902071548 | 62 | 181 | 1.0 | 5.0 | 0.00 | 0.00 | 0.00 | 86 | 1007.9 |
| 20260902071028 | 62 | 158 | 3.0 | 5.0 | 0.00 | 0.00 | 0.00 | 86 | 1008.0 |
| 20260902070528 | 63 | 141 | 1.0 | 6.0 | 0.00 | 0.00 | 0.00 | 86 | 1008.0 |
| 20260902070050 | 63 | 148 | 2.0 | 7.0 | 0.00 | 0.00 | 0.00 | 86 | 1008.1 |
| 20260902065524 | 63 | 134 | 3.0 | 7.0 | 0.00 | 0.00 | 0.00 | 86 | 1008.0 |
| 20260902065027 | 63 | 143 | 5.0 | 8.0 | 0.00 | 0.00 | 0.00 | 86 | 1008.1 |
| 20260902064546 | 63 | 141 | 5.0 | 8.0 | 0.00 | 0.00 | 0.00 | 86 | 1008.2 |
| 20260902064025 | 63 | 151 | 3.0 | 6.0 | 0.00 | 0.00 | 0.00 | 86 | 1008.1 |
| 20260902063530 | 63 | 150 | 1.0 | 6.0 | 0.00 | 0.00 | 0.00 | 86 | 1008.1 |
| 20260902063043 | 63 | 154 | 2.0 | 8.0 | 0.00 | 0.00 | 0.00 | 86 | 1008.1 |
| 20260902062527 | 63 | 109 | 3.0 | 8.0 | 0.00 | 0.00 | 0.00 | 86 | 1008.2 |
| 20260902062029 | 63 | 206 | 4.0 | 10.0 | 0.00 | 0.00 | 0.00 | 86 | 1008.2 |
| 20260902061558 | 63 | 161 | 3.0 | 10.0 | 0.00 | 0.00 | 0.00 | 86 | 1008.2 |
| 20260902061025 | 63 | 132 | 3.0 | 6.0 | 0.00 | 0.00 | 0.00 | 85 | 1008.3 |
| 20260902060524 | 63 | 139 | 2.0 | 5.0 | 0.00 | 0.00 | 0.00 | 85 | 1008.3 |
| 20260902060056 | 63 | 162 | 2.0 | 7.0 | 0.00 | 0.00 | 0.00 | 85 | 1008.4 |
| 20260902055527 | 63 | 160 | 2.0 | 7.0 | 0.00 | 0.00 | 0.00 | 85 | 1008.4 |
| 20260902055026 | 63 | 136 | 3.0 | 11.0 | 0.00 | 0.00 | 0.00 | 84 | 1008.4 |
| 20260902054549 | 63 | 173 | 4.0 | 13.0 | 0.00 | 0.00 | 0.00 | 84 | 1008.3 |
| 20260902054026 | 63 | 145 | 7.0 | 13.0 | 0.00 | 0.00 | 0.00 | 84 | 1008.2 |
| 20260902053527 | 63 | 148 | 7.0 | 13.0 | 0.00 | 0.00 | 0.00 | 84 | 1008.2 |
| 20260902053043 | 63 | 151 | 7.0 | 13.0 | 0.00 | 0.00 | 0.00 | 83 | 1008.3 |
| 20260902052527 | 64 | 219 | 6.0 | 12.0 | 0.00 | 0.00 | 0.00 | 83 | 1008.3 |
| 20260902052026 | 64 | 211 | 6.0 | 13.0 | 0.00 | 0.00 | 0.00 | 83 | 1008.5 |
| 20260902051548 | 64 | 148 | 6.0 | 13.0 | 0.00 | 0.00 | 0.00 | 82 | 1008.4 |
| 20260902051024 | 64 | 152 | 5.0 | 11.0 | 0.00 | 0.00 | 0.00 | 82 | 1008.4 |
| 20260902050527 | 63 | 140 | 7.0 | 11.0 | 0.00 | 0.00 | 0.00 | 82 | 1008.4 |
| 20260902050047 | 63 | 134 | 5.0 | 12.0 | 0.00 | 0.00 | 0.00 | 82 | 1008.4 |